Hof Plauen, Germany

9:49 AM CEST on June 24, 2017 (GMT +0200)
Hof-Plauen

Weather History for EDQM - March, 2013

Change the Weather History Date:

Friday, March 1, 2013

  Actual Average Record
Temperature  
Mean Temperature 28 °F -  
Max Temperature 30 °F 41 °F 51 °F (1997)
Min Temperature 26 °F 30 °F 3 °F (2005)
Degree Days  
Heating Degree Days 37    
Moisture  
Dew Point 27 °F    
Average Humidity 92    
Maximum Humidity 100    
Minimum Humidity 81    
Precipitation  
Precipitation 0.00 in - - ()
Sea Level Pressure  
Sea Level Pressure 30.17 in    
Wind  
Wind Speed 4 mph ()    
Max Wind Speed 9 mph    
Max Gust Speed -    
Visibility 3.5 miles    
Events Fog , Rain , Snow    
Averages and records for this station are not official NWS values.
T = Trace of Precipitation, MM = Missing Value Source: Averaged Metar Reports

Daily Weather History Graph

Daily Weather History Graph

Search for Another Location

Airport or City:

Trip Planner

Search our weather history database for the weather conditions in past years. The results will help you decide how hot, cold, wet, or windy it might be!

Date:

Astronomy

Mar. 01, 2013 Rise Set
Actual Time 6:56 AM CET 5:54 PM CET
Civil Twilight 6:23 AM CET 6:27 PM CET
Nautical Twilight 5:45 AM CET 7:04 PM CET
Astronomical Twilight 5:08 AM CET 7:42 PM CET
Moon 10:41 PM CET (3/1) 8:03 AM CET (3/1)
Length of Visible Light 12h 03m
Length of Day
10h 58m
Waning Gibbous, 85% of the Moon is Illuminated
Mar 1
Waning Gibbous
Mar 4
Last Quarter
Mar 11
New
Mar 19
First Quarter
Mar 27
Full

Hourly Weather History & Observations

Time (CET) Temp. Windchill Dew Point Humidity Pressure Visibility Wind Dir Wind Speed Gust Speed Precip Events Conditions
12:00 AM 29 °F - 29 °F 98% 30.28 in 1 mi NNW 4.5 mph - -   Light Freezing Rain
12:20 AM 28.4 °F 23.3 °F 26.6 °F 93% 30.18 in 1.6 mi NW 4.6 mph - N/A   Overcast
12:50 AM 28.4 °F 24.6 °F 26.6 °F 93% 30.15 in - NW 3.5 mph - N/A Snow Light Snow
1:00 AM 28 °F - 28 °F 99% 30.28 in 2 mi WNW 6.7 mph - -   Light Freezing Rain
1:20 AM 28.4 °F 24.6 °F 26.6 °F 93% 30.15 in - West 3.5 mph - N/A   Overcast
1:50 AM 28.4 °F 24.6 °F 26.6 °F 93% 30.15 in - NW 3.5 mph - N/A   Overcast
2:00 AM 28 °F - 27 °F 96% 30.27 in 2 mi NW 4.5 mph - -   Light Freezing Rain
2:20 AM 28.4 °F - 26.6 °F 93% 30.15 in 1.8 mi Variable 2.3 mph - N/A Snow Snow Grains
2:50 AM 28.4 °F - 26.6 °F 93% 30.12 in 1.2 mi Variable 2.3 mph - N/A Snow Light Snow
3:00 AM 27 °F - 27 °F 100% 30.25 in 1 mi NNW 4.5 mph - -   Mist
3:20 AM 28.4 °F - 26.6 °F 93% 30.12 in 1.0 mi Variable 1.2 mph - N/A   Overcast
3:50 AM 28.4 °F - 26.6 °F 93% 30.12 in 1.1 mi Variable 2.3 mph - N/A   Overcast
4:20 AM 28.4 °F - 26.6 °F 93% 30.12 in 1.2 mi Variable 2.3 mph - N/A   Overcast
4:50 AM 28.4 °F 24.6 °F 26.6 °F 93% 30.12 in 1.2 mi NW 3.5 mph - N/A   Overcast
5:00 AM 27 °F - 27 °F 99% 30.24 in 2 mi NNW 6.7 mph - -   Mist
5:20 AM 28.4 °F 24.6 °F 26.6 °F 93% 30.12 in 1.5 mi NW 3.5 mph - N/A   Overcast
5:50 AM 26.6 °F 22.6 °F 24.8 °F 93% 30.12 in 3.1 mi WNW 3.5 mph - N/A   Overcast
6:00 AM 27 °F - 27 °F 98% 30.24 in 1 mi West 4.5 mph - -   Mist
6:20 AM 26.6 °F - 24.8 °F 93% 30.12 in 1.4 mi Variable 2.3 mph - N/A   Overcast
6:50 AM 26.6 °F - 24.8 °F 93% 30.12 in 1.2 mi Variable 2.3 mph - N/A   Overcast
7:00 AM 27 °F - 27 °F 99% 30.23 in 1 mi WNW 2.2 mph - -   Mist
7:20 AM 28.4 °F 24.6 °F 26.6 °F 93% 30.12 in 1.0 mi NNW 3.5 mph - N/A   Overcast
7:50 AM 28.4 °F 24.6 °F 26.6 °F 93% 30.12 in 0.5 mi West 3.5 mph - N/A Fog Light Freezing Fog
8:00 AM 27 °F - 27 °F 99% 30.24 in 0 mi WNW 4.5 mph - - Fog Heavy Fog
8:20 AM 28.4 °F 24.6 °F 26.6 °F 93% 30.12 in 0.5 mi NW 3.5 mph - N/A Fog Light Freezing Fog
8:50 AM 28.4 °F - 26.6 °F 93% 30.12 in 0.6 mi Variable 2.3 mph - N/A Fog Light Freezing Fog
9:00 AM 27 °F - 27 °F 99% 30.25 in 1 mi NNW 4.5 mph - - Fog Heavy Fog
9:20 AM 28.4 °F 24.6 °F 26.6 °F 93% 30.12 in 0.6 mi WNW 3.5 mph - N/A Fog Light Freezing Fog
9:50 AM 28.4 °F 24.6 °F 26.6 °F 93% 30.12 in 1.1 mi NW 3.5 mph - N/A   Overcast
10:20 AM 28.4 °F 24.6 °F 26.6 °F 93% 30.12 in 1.7 mi WNW 3.5 mph - N/A   Overcast
10:50 AM 28.4 °F 23.3 °F 26.6 °F 93% 30.12 in 3.1 mi WNW 4.6 mph - N/A   Overcast
11:00 AM 28 °F - 28 °F 99% 30.25 in 4 mi WNW 6.7 mph - - Rain Light Freezing Rain
11:20 AM 30.2 °F 25.4 °F 26.6 °F 86% 30.15 in 5.0 mi NW 4.6 mph - N/A   Overcast
11:50 AM 30.2 °F - 28.4 °F 93% 30.15 in 4.3 mi Variable 2.3 mph - N/A   Overcast
12:00 PM 29 °F - 29 °F 98% 30.25 in 4 mi WNW 4.5 mph - - Rain Light Freezing Rain
12:20 PM 32.0 °F - 28.4 °F 87% 30.12 in 3.1 mi Variable 1.2 mph - N/A Snow Light Snow
12:50 PM 33.8 °F 30.8 °F 28.4 °F 81% 30.12 in 4.3 mi North 3.5 mph - N/A Snow Light Snow
1:00 PM 31 °F - 29 °F 90% 30.22 in 7 mi WNW 2.2 mph - - Snow Light Snow
1:20 PM 32.0 °F 26.4 °F 28.4 °F 87% 30.12 in 4.3 mi WNW 5.8 mph - N/A Snow Light Snow
1:50 PM 32.0 °F 25.6 °F 28.4 °F 87% 30.12 in 4.3 mi NNW 6.9 mph - N/A Snow Light Snow
2:00 PM 30 °F - 29 °F 96% 30.22 in 5 mi NNW 6.7 mph - - Snow Light Snow
2:50 PM 30.2 °F 22.6 °F 28.4 °F 93% 30.12 in 6.2 mi North 8.1 mph - N/A   Overcast
3:00 PM 29 °F - 28 °F 93% 30.23 in 7 mi NNW 8.9 mph - - Snow Light Snow
3:20 PM 30.2 °F 23.4 °F 28.4 °F 93% 30.12 in 6.2 mi North 6.9 mph - N/A   Overcast
3:50 PM 30.2 °F 21.9 °F 26.6 °F 86% 30.12 in 6.2 mi North 9.2 mph - N/A   Overcast
4:20 PM 30.2 °F 23.4 °F 26.6 °F 86% 30.12 in 6.2 mi NNW 6.9 mph - N/A   Overcast
4:50 PM 30.2 °F 24.3 °F 26.6 °F 86% 30.12 in 6.2 mi NNW 5.8 mph - N/A   Overcast
5:00 PM 29 °F - 27 °F 89% 30.23 in 6 mi NNW 8.9 mph - -   Overcast
5:20 PM 28.4 °F 21.2 °F 24.8 °F 86% 30.12 in 6.2 mi NNW 6.9 mph - N/A   Overcast
5:50 PM 28.4 °F 20.4 °F 24.8 °F 86% 30.12 in 6.2 mi NNW 8.1 mph - N/A   Overcast
6:00 PM 28 °F - 26 °F 90% 30.25 in 4 mi North 8.9 mph - -   Mist
6:20 PM 28.4 °F 21.2 °F 26.6 °F 93% 30.12 in 6.2 mi North 6.9 mph - N/A   Overcast
6:50 PM 28.4 °F 23.3 °F 26.6 °F 93% 30.15 in 5.6 mi North 4.6 mph - N/A   Overcast
7:00 PM 28 °F - 26 °F 88% 30.26 in 4 mi NNW 6.7 mph - -   Mist
7:20 PM 28.4 °F 23.3 °F 24.8 °F 86% 30.15 in 6.2 mi North 4.6 mph - N/A   Overcast
7:50 PM 28.4 °F 22.2 °F 26.6 °F 93% 30.15 in 6.2 mi North 5.8 mph - N/A   Overcast
8:00 PM 28 °F - 26 °F 90% 30.27 in 4 mi North 4.5 mph - -   Mist
8:20 PM 28.4 °F 20.4 °F 26.6 °F 93% 30.15 in 5.6 mi North 8.1 mph - N/A   Overcast
8:50 PM 28.4 °F 22.2 °F 26.6 °F 93% 30.18 in 5.0 mi North 5.8 mph - N/A   Overcast
9:00 PM 28 °F - 27 °F 94% 30.28 in 3 mi North 4.5 mph - -   Mist
9:20 PM 28.4 °F 22.2 °F 26.6 °F 93% 30.18 in 3.7 mi NNE 5.8 mph - N/A   Overcast
9:50 PM 28.4 °F 21.2 °F 26.6 °F 93% 30.18 in 4.3 mi NNE 6.9 mph - N/A   Overcast
10:20 PM 28.4 °F 21.2 °F 26.6 °F 93% 30.18 in 5.0 mi North 6.9 mph - N/A   Overcast
10:50 PM 28.4 °F 22.2 °F 24.8 °F 86% 30.18 in 5.6 mi North 5.8 mph - N/A   Overcast
11:00 PM 28 °F - 26 °F 86% 30.30 in 4 mi North 4.5 mph - -   Mist
11:20 PM 28.4 °F 23.3 °F 24.8 °F 86% 30.18 in 6.2 mi NNE 4.6 mph - N/A   Overcast
11:50 PM 28.4 °F - 24.8 °F 86% 30.18 in 5.6 mi Variable 2.3 mph - N/A   Overcast